Le nostre stazioni meteo in Italia

Pubblicità
Il mio iltempo24.it
Treviso/Istrana, Italia (16098): Temperatura & dewpoint: 07.12.2018 22:00:00 - 13.12.2018 22:00:00 (CET)Treviso/Istrana, Italia (16098): velocità del vento: 07.12.2018 22:00:00 - 13.12.2018 22:00:00 (CET)Treviso/Istrana, Italia (16098): direzione del vento: 07.12.2018 22:00:00 - 13.12.2018 22:00:00 (CET)Treviso/Istrana, Italia (16098): reduced air pressure: 07.12.2018 22:00:00 - 13.12.2018 22:00:00 (CET)Treviso/Istrana, Italia (16098): visibility: 07.12.2018 22:00:00 - 13.12.2018 22:00:00 (CET)
Data & Tempo tt [°C] td [°C] ff [km/h] ff [kn] dd ppp [hPa] vv [km]
13.12.2018 22:00:00 1,8 -1,1 8 4 NE 1016,3 20
13.12.2018 21:00:00 2,0 -0,3 9 5 NNE 1016,5 20
13.12.2018 20:00:00 3,4 1,1 8 4 ENE 1016,5 15
13.12.2018 19:00:00 3,6 1,0 9 5 NE 1016,5 15
13.12.2018 18:00:00 4,4 0,5 5 3 NE 1016,3 15
13.12.2018 17:00:00 5,0 0,0 9 5 NE 1015,7 15
13.12.2018 16:00:00 6,0 0,5 15 8 E 1016,0 20
13.12.2018 15:00:00 7,0 1,3 18 10 E 1016,0 15
13.12.2018 14:00:00 7,0 0,7 21 11 E 1016,4 20
13.12.2018 13:00:00 6,8 0,5 22 12 E 1016,5 20
13.12.2018 12:00:00 6,0 0,4 16 9 ENE 1017,0 15
13.12.2018 11:00:00 4,8 0,2 11 6 ENE 1017,4 15
13.12.2018 10:00:00 4,4 1,2 13 7 NE 1018,0 13
13.12.2018 09:00:00 3,8 2,3 11 6 NE 1017,7 12
13.12.2018 08:00:00 3,8 2,0 9 5 ENE 1017,5 15
13.12.2018 07:00:00 3,8 2,0 15 8 ENE 1017,1 20
13.12.2018 06:00:00 2,8 -0,1 15 8 ENE 1017,1 20
13.12.2018 05:00:00 1,6 -1,1 16 9 NE 1017,8 20
13.12.2018 04:00:00 1,4 -1,5 15 8 NE 1017,8 20
13.12.2018 03:00:00 1,0 -3,9 13 7 NE 1018,5 20
13.12.2018 02:00:00 0,4 -3,0 9 5 NE 1018,5 20
13.12.2018 01:00:00 0,0 -3,5 11 6 NNE 1018,7 20
13.12.2018 00:00:00 0,0 -2,5 9 5 NNE 1019,3 20
12.12.2018 23:00:00 0,0 -2,5 5 3 ONO 1019,1 20
12.12.2018 22:00:00 0,4 -2,3 9 5 NNE 1019,2 20
12.12.2018 21:00:00 1,0 -2,1 0 0 N 1019,4 25
12.12.2018 20:00:00 1,4 -3,9 9 5 NNE 1019,3 25
12.12.2018 19:00:00 2,8 -4,6 4 2 N 1019,3 25
12.12.2018 18:00:00 4,8 -2,5 2 1 S 1019,0 25
12.12.2018 17:00:00 7,4 -2,6 0 0 N 1018,8 30
12.12.2018 16:00:00 9,6 -2,4 4 2 SO 1018,8 35
12.12.2018 15:00:00 9,8 -4,2 5 3 SSO 1018,9 40
12.12.2018 14:00:00 9,6 -3,0 5 3 OSO 1019,1 45
12.12.2018 13:00:00 8,8 -3,1 11 6 OSO 1019,4 50
12.12.2018 12:00:00 7,6 -2,4 9 5 OSO 1019,9 50
12.12.2018 11:00:00 5,8 -3,5 2 1 OSO 1020,2 55
12.12.2018 10:00:00 3,6 -2,8 4 2 SSO 1020,3 60
12.12.2018 09:00:00 1,4 -3,7 5 3 N 1020,3 50
12.12.2018 08:00:00 -0,6 -4,0 4 2 ENE 1019,5 35
12.12.2018 07:00:00 -0,4 -3,9 0 0 N 1019,8 20
12.12.2018 06:00:00 0,4 -5,4 4 2 NE 1019,5 20
12.12.2018 05:00:00 0,4 -5,0 9 5 N 1019,7 15
12.12.2018 04:00:00 0,6 -5,2 9 5 N 1019,7 20
12.12.2018 03:00:00 1,4 -4,5 9 5 N 1019,5 20
12.12.2018 02:00:00 1,4 -4,5 11 6 N 1019,5 25
12.12.2018 01:00:00 2,4 -2,5 5 3 NNE 1019,9 20
12.12.2018 00:00:00 3,0 -3,5 5 3 O 1019,6 20
11.12.2018 23:00:00 3,4 -4,3 11 6 N 1019,5 20
11.12.2018 22:00:00 3,0 -4,0 5 3 NE 1019,5 15
11.12.2018 21:00:00 4,4 -5,1 4 2 N 1018,7 15
11.12.2018 20:00:00 5,0 -6,5 4 2 NNO 1018,6 40
11.12.2018 19:00:00 5,0 -6,5 8 4 ONO 1018,4 50
11.12.2018 18:00:00 7,0 -5,3 8 4 O 1017,9 50
11.12.2018 17:00:00 8,0 -6,5 8 4 NO 1017,6 50
11.12.2018 16:00:00 11,0 -5,1 9 5 O 1017,3 50
11.12.2018 15:00:00 12,0 -6,4 11 6 O 1017,5 50
11.12.2018 14:00:00 12,0 -6,4 15 8 O 1017,3 50
11.12.2018 13:00:00 12,0 -5,0 8 4 O 1017,8 50
11.12.2018 12:00:00 10,0 -1,4 4 2 SO 1017,6 50
11.12.2018 11:00:00 8,0 0,7 2 1 OSO 1017,6 50
11.12.2018 10:00:00 5,0 1,7 5 3 ONO 1018,0 45
11.12.2018 09:00:00 2,0 -0,4 11 6 NO 1017,9 35
11.12.2018 08:00:00 1,4 -1,0 5 3 N 1017,8 30
11.12.2018 07:00:00 1,0 -1,7 8 4 NO 1017,4 30
11.12.2018 06:00:00 4,0 0,0 5 3 SE 1017,4 20
11.12.2018 05:00:00 4,0 0,3 13 7 ENE 1017,4 20
11.12.2018 04:00:00 4,0 0,5 11 6 NNE 1017,4 20
11.12.2018 03:00:00 4,8 2,0 9 5 E 1016,7 20
11.12.2018 02:00:00 4,8 -2,8 8 4 SO 1016,6 20
11.12.2018 01:00:00 2,4 -0,7 9 5 NNE 1016,7 20
11.12.2018 00:00:00 2,4 -2,1 11 6 NNO 1016,7 20
10.12.2018 23:00:00 4,8 -1,2 4 2 N 1016,7 15
10.12.2018 22:00:00 5,4 -5,6 4 2 N 1016,4 15
10.12.2018 21:00:00 3,6 2,9 11 6 NNO 1016,5 15
10.12.2018 20:00:00 4,0 3,3 5 3 NNE 1016,7 15
10.12.2018 19:00:00 5,0 4,3 5 3 ENE 1016,4 20
10.12.2018 18:00:00 8,4 2,2 9 5 ENE 1015,6 25
10.12.2018 17:00:00 10,0 -3,0 9 5 ONO 1014,7 30
10.12.2018 16:00:00 11,6 -1,5 9 5 ONO 1014,6 30
10.12.2018 15:00:00 11,6 4,1 8 4 NO 1014,4 30
10.12.2018 14:00:00 11,0 8,2 8 4 O 1014,4 25
10.12.2018 13:00:00 10,0 7,1 4 2 SSE 1014,1 25
10.12.2018 12:00:00 8,6 6,2 2 1 OSO 1014,2 30
10.12.2018 11:00:00 5,4 3,9 5 3 NE 1014,0 25
10.12.2018 10:00:00 2,8 1,2 4 2 NE 1013,5 25
10.12.2018 09:00:00 1,4 -0,1 0 0 N 1012,5 6
10.12.2018 08:00:00 1,0 -0,5 0 0 N 1011,9 5
10.12.2018 07:00:00 1,0 -0,5 5 3 N 1011,4 4,0
10.12.2018 06:00:00 1,0 -0,5 0 0 N 1011,0 4,0
10.12.2018 05:00:00 1,0 -0,5 0 0 N 1010,4 4,0
10.12.2018 04:00:00 1,4 -0,1 11 6 NNE 1010,0 4,0
10.12.2018 03:00:00 1,8 0,3 0 0 N 1009,9 3,0
10.12.2018 02:00:00 1,6 0,3 5 3 N 1008,9 2,0
10.12.2018 01:00:00 1,6 0,3 0 0 N 1008,8 1,4
10.12.2018 00:00:00 2,6 1,3 5 3 N 1008,4 3,0
09.12.2018 23:00:00 3,0 1,7 4 2 S 1008,3 1,2
09.12.2018 22:00:00 4,0 2,7 8 4 N 1007,3 3,5
09.12.2018 21:00:00 4,8 3,6 0 0 N 1006,3 5
09.12.2018 20:00:00 5,8 4,4 4 2 NNO 1007,1 5
09.12.2018 19:00:00 6,0 4,8 8 4 OSO 1006,8 6
09.12.2018 18:00:00 7,4 5,9 4 2 O 1006,8 6
09.12.2018 17:00:00 9,0 6,4 8 4 O 1006,9 7
09.12.2018 16:00:00 11,0 6,7 9 5 OSO 1006,6 10
09.12.2018 15:00:00 12,0 6,3 5 3 O 1006,8 10
09.12.2018 14:00:00 12,0 7,7 4 2 SSE 1006,6 10
09.12.2018 13:00:00 12,0 7,1 11 6 NE 1007,1 10
09.12.2018 12:00:00 11,0 7,3 8 4 NE 1007,1 10
09.12.2018 11:00:00 9,4 6,8 11 6 ENE 1007,7 9
09.12.2018 10:00:00 8,2 5,5 13 7 ENE 1008,2 8
09.12.2018 09:00:00 7,0 4,7 11 6 NE 1009,0 6
09.12.2018 08:00:00 6,0 4,0 11 6 NE 1008,8 6
09.12.2018 07:00:00 5,6 3,8 11 6 NE 1009,6 8
09.12.2018 06:00:00 5,4 3,6 11 6 NE 1010,0 7
09.12.2018 05:00:00 5,2 3,4 8 4 NE 1011,5 5
09.12.2018 04:00:00 4,4 2,6 4 2 NNE 1012,1 4,5
09.12.2018 03:00:00 4,4 2,6 5 3 NE 1013,8 4,0
09.12.2018 02:00:00 4,2 2,6 2 1 NNO 1014,0 1,2
09.12.2018 01:00:00 4,8 3,1 4 2 NNE 1014,8 0,5
09.12.2018 00:00:00 5,4 3,7 4 2 NE 1015,2 1,4
08.12.2018 23:00:00 5,6 4,1 5 3 NE 1015,2 1,8
08.12.2018 22:00:00 5,8 4,3 4 2 E 1015,3 1,0
08.12.2018 21:00:00 6,2 4,7 8 4 N 1015,6 1,5
08.12.2018 20:00:00 5,4 4,1 0 0 N 1015,4 4,0
08.12.2018 19:00:00 5,4 4,2 0 0 N 1015,5 8
08.12.2018 18:00:00 7,6 6,4 0 0 N 1015,4 10
08.12.2018 17:00:00 9,6 7,2 5 3 SSO 1014,7 10
08.12.2018 16:00:00 12,0 7,9 5 3 SSO 1013,6 10
08.12.2018 15:00:00 12,0 7,5 9 5 S 1013,5 12
08.12.2018 14:00:00 13,0 8,3 9 5 S 1012,9 10
08.12.2018 13:00:00 12,6 8,7 5 3 SO 1012,6 10
08.12.2018 12:00:00 11,2 9,0 8 4 O 1012,4 8
08.12.2018 11:00:00 9,4 7,4 15 8 O 1012,2 6
08.12.2018 10:00:00 8,4 6,9 11 6 ONO 1010,8 2,5
08.12.2018 09:00:00 8,0 6,6 15 8 O 1010,9 1,4
08.12.2018 08:00:00 8,0 6,5 18 10 O 1009,8 1,0
08.12.2018 07:00:00 8,0 6,5 5 3 NNO 1009,0 1,5
08.12.2018 06:00:00 7,0 5,5 8 4 N 1008,9 2,0
08.12.2018 05:00:00 7,0 5,5 9 5 NE 1009,2 1,2
08.12.2018 04:00:00 6,4 4,9 9 5 NE 1009,2 0,9
08.12.2018 03:00:00 6,0 4,5 9 5 ENE 1010,0 0,9
08.12.2018 02:00:00 6,0 4,5 5 3 NE 1010,6 0,9
08.12.2018 01:00:00 6,0 4,5 5 3 NNE 1011,9 0,9
08.12.2018 00:00:00 6,0 4,5 5 3 S 1014,3 0,8
07.12.2018 23:00:00 6,0 4,5 0 0 N 1014,4 0,9
07.12.2018 22:00:00 6,0 4,5 5 3 N 1015,4 0,8

tt = Temperatura
td = dewpoint
ff = velocità del vento
dd = direzione del vento
ppp = reduced air pressure
vv = visibility

Stazioni seguenti

WeatherPro
AMSI
MeteoEarth